UAL1582 KPDX-KLAX

Flight info

Callsign UAL1582
Flight time 1h 59m
Altitude 37000
Route KPDX/28L HRMNS6 HYJOE DCT JAGWA DCT BURGL IRNMN2 KLAX/LIVVN I24R
Aircraft B38M/M-SDE1FGHILORVWXY/HB1

Departure

Time 2026-05-08 02:43
Airport Portland International Airport (KPDX)

Arrival

Time 2026-05-08 04:42
Airport Los Angeles International Airport (KLAX)
Time Latitude Longitude Altitude Speed Heading
2026-05-08 02:20 45.58621 -122.59266 33 ft 0 kts 86°
2026-05-08 02:30 45.58617 -122.59296 34 ft 4 kts 51°
2026-05-08 02:31 45.58599 -122.59306 34 ft 4 kts 340°
2026-05-08 02:31 45.58578 -122.59286 34 ft 3 kts 311°
2026-05-08 02:31 45.58573 -122.59277 34 ft 0 kts 309°
2026-05-08 02:35 45.58578 -122.59287 34 ft 5 kts 309°
2026-05-08 02:35 45.58631 -122.59379 36 ft 17 kts 308°
2026-05-08 02:35 45.58709 -122.59538 37 ft 21 kts 300°
2026-05-08 02:35 45.58712 -122.59733 39 ft 21 kts 265°
2026-05-08 02:36 45.58767 -122.59905 39 ft 17 kts 299°
2026-05-08 02:36 45.58829 -122.60067 38 ft 20 kts 299°
2026-05-08 02:36 45.58901 -122.60250 33 ft 23 kts 299°
2026-05-08 02:36 45.58973 -122.60418 36 ft 16 kts 316°
2026-05-08 02:37 45.59006 -122.60413 37 ft 5 kts 52°
2026-05-08 02:37 45.59071 -122.60285 34 ft 23 kts 47°
2026-05-08 02:37 45.59196 -122.60105 36 ft 27 kts 44°
2026-05-08 02:37 45.59334 -122.59911 35 ft 28 kts 45°
2026-05-08 02:38 45.59410 -122.59700 37 ft 25 kts 111°
2026-05-08 02:38 45.59323 -122.59476 39 ft 26 kts 118°
2026-05-08 02:38 45.59236 -122.59252 41 ft 26 kts 118°
2026-05-08 02:38 45.59150 -122.59027 42 ft 27 kts 120°
2026-05-08 02:39 45.59053 -122.58789 41 ft 29 kts 119°
2026-05-08 02:39 45.58962 -122.58551 39 ft 24 kts 118°
2026-05-08 02:39 45.58880 -122.58336 41 ft 25 kts 118°
2026-05-08 02:39 45.58794 -122.58119 43 ft 25 kts 119°
2026-05-08 02:40 45.58706 -122.57896 47 ft 26 kts 119°
2026-05-08 02:40 45.58614 -122.57659 43 ft 29 kts 118°
2026-05-08 02:40 45.58512 -122.57396 39 ft 32 kts 119°
2026-05-08 02:40 45.58439 -122.57210 40 ft 18 kts 118°
2026-05-08 02:41 45.58375 -122.57045 38 ft 20 kts 120°
2026-05-08 02:41 45.58349 -122.56918 43 ft 0 kts 59°
2026-05-08 02:42 45.58350 -122.56913 42 ft 3 kts 58°
2026-05-08 02:42 45.58436 -122.56898 40 ft 24 kts 319°
2026-05-08 02:42 45.58647 -122.57431 42 ft 106 kts 300°
2026-05-08 02:43 45.59146 -122.58665 122 ft 172 kts 301°
2026-05-08 02:43 45.59769 -122.60265 863 ft 192 kts 297°
2026-05-08 02:43 45.60420 -122.62035 1819 ft 215 kts 297°
2026-05-08 02:43 45.61140 -122.64048 2830 ft 235 kts 297°
2026-05-08 02:44 45.61906 -122.66179 4094 ft 247 kts 297°
2026-05-08 02:44 45.62720 -122.68396 5354 ft 255 kts 296°
2026-05-08 02:44 45.63535 -122.70654 6735 ft 257 kts 295°
2026-05-08 02:44 45.64339 -122.72971 7667 ft 269 kts 295°
2026-05-08 02:45 45.65200 -122.75368 8614 ft 270 kts 296°
2026-05-08 02:45 45.65790 -122.76939 9295 ft 272 kts 297°
2026-05-08 02:45 45.66690 -122.79352 10192 ft 277 kts 291°
2026-05-08 02:45 45.67011 -122.82037 11039 ft 277 kts 266°
2026-05-08 02:46 45.66421 -122.85628 12134 ft 284 kts 255°
2026-05-08 02:46 45.65791 -122.88344 12847 ft 296 kts 245°
2026-05-08 02:46 45.64989 -122.90028 13114 ft 313 kts 229°
2026-05-08 02:46 45.63117 -122.91817 13512 ft 339 kts 202°
2026-05-08 02:47 45.60724 -122.92255 14009 ft 361 kts 176°
2026-05-08 02:47 45.58277 -122.91213 14623 ft 373 kts 163°
2026-05-08 02:47 45.55788 -122.90066 15241 ft 378 kts 166°
2026-05-08 02:47 45.53346 -122.88623 15971 ft 385 kts 152°
2026-05-08 02:48 45.51044 -122.86625 16680 ft 389 kts 152°
2026-05-08 02:48 45.48709 -122.84631 17356 ft 394 kts 152°
2026-05-08 02:48 45.46351 -122.82615 18047 ft 397 kts 152°
2026-05-08 02:48 45.43969 -122.80575 18661 ft 401 kts 152°
2026-05-08 02:49 45.41564 -122.78518 19235 ft 405 kts 152°
2026-05-08 02:49 45.39142 -122.76448 19839 ft 408 kts 152°
2026-05-08 02:49 45.36693 -122.74357 20426 ft 412 kts 152°
2026-05-08 02:49 45.34229 -122.72255 21003 ft 415 kts 152°
2026-05-08 02:50 45.31745 -122.70138 21562 ft 419 kts 152°
2026-05-08 02:50 45.29268 -122.68030 22114 ft 422 kts 152°
2026-05-08 02:50 45.26739 -122.65879 22657 ft 426 kts 152°
2026-05-08 02:50 45.24189 -122.63713 23207 ft 429 kts 152°
2026-05-08 02:51 45.21583 -122.61502 23735 ft 433 kts 152°
2026-05-08 02:51 45.19024 -122.59331 24160 ft 436 kts 152°
2026-05-08 02:51 45.16412 -122.57120 24617 ft 439 kts 152°
2026-05-08 02:51 45.13783 -122.54896 25056 ft 442 kts 152°
2026-05-08 02:52 45.11132 -122.52657 25478 ft 445 kts 152°
2026-05-08 02:52 45.08460 -122.50402 25911 ft 448 kts 152°
2026-05-08 02:52 45.05733 -122.48102 26329 ft 452 kts 152°
2026-05-08 02:52 45.03063 -122.45854 26750 ft 455 kts 152°
2026-05-08 02:53 45.00336 -122.43560 27155 ft 458 kts 152°
2026-05-08 02:53 44.97586 -122.41249 27554 ft 461 kts 152°
2026-05-08 02:53 44.94741 -122.39028 27937 ft 461 kts 161°
2026-05-08 02:53 44.91753 -122.37586 28316 ft 462 kts 165°
2026-05-08 02:54 44.88696 -122.36130 28669 ft 465 kts 165°
2026-05-08 02:54 44.85616 -122.34677 29079 ft 467 kts 165°
2026-05-08 02:54 44.82481 -122.33211 29443 ft 471 kts 165°
2026-05-08 02:54 44.79363 -122.31758 29836 ft 473 kts 165°
2026-05-08 02:55 44.76270 -122.30320 30176 ft 476 kts 165°
2026-05-08 02:55 44.69942 -122.27380 30755 ft 481 kts 165°
2026-05-08 02:55 44.66756 -122.25903 31071 ft 483 kts 165°
2026-05-08 02:56 44.63556 -122.24422 31374 ft 485 kts 165°
2026-05-08 02:56 44.60344 -122.22937 31702 ft 487 kts 165°
2026-05-08 02:56 44.57125 -122.21449 32123 ft 487 kts 165°
2026-05-08 02:56 44.53912 -122.19967 32570 ft 486 kts 165°
2026-05-08 02:57 44.50703 -122.18489 33027 ft 485 kts 165°
2026-05-08 02:57 44.47506 -122.17016 33478 ft 484 kts 165°
2026-05-08 02:57 44.44306 -122.15546 33912 ft 483 kts 165°
2026-05-08 02:57 44.41115 -122.14080 34311 ft 482 kts 165°
2026-05-08 02:58 44.37928 -122.12619 34688 ft 481 kts 165°
2026-05-08 02:58 44.34751 -122.11163 35040 ft 480 kts 165°
2026-05-08 02:58 44.31581 -122.09712 35417 ft 479 kts 165°
2026-05-08 02:58 44.28413 -122.08264 35753 ft 479 kts 165°
2026-05-08 02:59 44.25254 -122.06820 36093 ft 477 kts 165°
2026-05-08 02:59 44.22100 -122.05381 36374 ft 476 kts 165°
2026-05-08 02:59 44.18957 -122.03948 36700 ft 475 kts 165°
2026-05-08 02:59 44.15812 -122.02518 36991 ft 475 kts 165°
2026-05-08 03:00 44.12629 -122.01072 37113 ft 475 kts 165°
2026-05-08 03:00 44.06367 -121.98230 37077 ft 472 kts 166°
2026-05-08 03:01 44.00123 -121.95402 37075 ft 472 kts 166°
2026-05-08 03:01 43.93873 -121.92578 37073 ft 472 kts 166°
2026-05-08 03:02 43.87623 -121.89759 37079 ft 472 kts 166°
2026-05-08 03:02 43.81256 -121.87938 37079 ft 467 kts 175°
2026-05-08 03:03 43.74837 -121.86569 37073 ft 467 kts 175°
2026-05-08 03:03 43.68415 -121.85214 37062 ft 467 kts 175°
2026-05-08 03:04 43.61994 -121.83862 37060 ft 466 kts 175°
2026-05-08 03:04 43.55581 -121.82515 37069 ft 466 kts 175°
2026-05-08 03:05 43.49165 -121.81171 37054 ft 466 kts 175°
2026-05-08 03:05 43.42747 -121.79829 37056 ft 466 kts 175°
2026-05-08 03:06 43.36338 -121.78491 37054 ft 466 kts 175°
2026-05-08 03:06 43.29935 -121.77158 37053 ft 465 kts 175°
2026-05-08 03:07 43.23530 -121.75827 37056 ft 466 kts 175°
2026-05-08 03:07 43.17123 -121.74498 37056 ft 465 kts 174°
2026-05-08 03:08 43.10720 -121.73174 37058 ft 465 kts 174°
2026-05-08 03:08 43.04316 -121.71852 37054 ft 465 kts 174°
2026-05-08 03:09 42.97913 -121.70533 37057 ft 465 kts 174°
2026-05-08 03:09 42.91513 -121.69217 37058 ft 465 kts 174°
2026-05-08 03:10 42.85111 -121.67903 37058 ft 465 kts 174°
2026-05-08 03:10 42.78715 -121.66594 37060 ft 465 kts 174°
2026-05-08 03:11 42.72315 -121.65286 37060 ft 465 kts 174°
2026-05-08 03:11 42.65918 -121.63982 37064 ft 465 kts 174°
2026-05-08 03:12 42.59515 -121.62679 37063 ft 465 kts 174°
2026-05-08 03:12 42.53113 -121.61379 37061 ft 465 kts 174°
2026-05-08 03:13 42.46715 -121.60083 37067 ft 465 kts 174°
2026-05-08 03:13 42.40357 -121.58797 37078 ft 465 kts 174°
2026-05-08 03:14 42.33963 -121.57507 37086 ft 465 kts 174°
2026-05-08 03:14 42.27565 -121.56219 37101 ft 465 kts 174°
2026-05-08 03:15 42.21171 -121.54934 37102 ft 465 kts 174°
2026-05-08 03:15 42.14775 -121.53651 37097 ft 465 kts 174°
2026-05-08 03:16 42.08377 -121.52371 37092 ft 464 kts 174°
2026-05-08 03:16 42.01989 -121.51095 37082 ft 464 kts 174°
2026-05-08 03:17 41.95594 -121.49821 37073 ft 464 kts 174°
2026-05-08 03:17 41.89208 -121.48550 37063 ft 464 kts 174°
2026-05-08 03:18 41.82827 -121.47283 37056 ft 463 kts 173°
2026-05-08 03:18 41.76449 -121.46020 37058 ft 463 kts 173°
2026-05-08 03:19 41.70070 -121.44758 37061 ft 463 kts 173°
2026-05-08 03:19 41.63701 -121.43502 37061 ft 463 kts 173°
2026-05-08 03:20 41.57334 -121.42248 37070 ft 462 kts 173°
2026-05-08 03:20 41.50968 -121.40996 37073 ft 462 kts 173°
2026-05-08 03:21 41.44606 -121.39749 37075 ft 462 kts 173°
2026-05-08 03:21 41.38244 -121.38504 37077 ft 462 kts 173°
2026-05-08 03:22 41.31882 -121.37260 37071 ft 462 kts 173°
2026-05-08 03:22 41.25519 -121.36019 37067 ft 462 kts 173°
2026-05-08 03:23 41.19151 -121.34781 37066 ft 462 kts 173°
2026-05-08 03:23 41.12828 -121.33552 37056 ft 462 kts 173°
2026-05-08 03:24 41.06471 -121.32320 37053 ft 462 kts 173°
2026-05-08 03:24 41.00116 -121.31091 37059 ft 461 kts 173°
2026-05-08 03:25 40.93770 -121.29865 37060 ft 461 kts 173°
2026-05-08 03:25 40.87429 -121.28644 37067 ft 461 kts 173°
2026-05-08 03:26 40.81083 -121.27423 37072 ft 461 kts 173°
2026-05-08 03:26 40.75772 -121.26403 37079 ft 461 kts 173°
2026-05-08 03:27 40.69429 -121.25187 37084 ft 460 kts 173°
2026-05-08 03:27 40.63087 -121.23974 37087 ft 460 kts 173°
2026-05-08 03:28 40.56756 -121.22766 37092 ft 460 kts 173°
2026-05-08 03:28 40.50419 -121.21558 37099 ft 460 kts 173°
2026-05-08 03:29 40.44077 -121.20352 37099 ft 460 kts 173°
2026-05-08 03:29 40.37740 -121.19149 37105 ft 460 kts 173°
2026-05-08 03:30 40.28225 -121.17347 37103 ft 460 kts 173°
2026-05-08 03:31 40.15535 -121.14951 37107 ft 461 kts 173°
2026-05-08 03:32 40.06021 -121.13162 37119 ft 461 kts 173°
2026-05-08 03:32 39.99669 -121.11969 37102 ft 461 kts 173°
2026-05-08 03:33 39.93314 -121.10779 37101 ft 461 kts 173°
2026-05-08 03:33 39.86959 -121.09590 37104 ft 462 kts 173°
2026-05-08 03:34 39.80562 -121.08396 37096 ft 462 kts 173°
2026-05-08 03:34 39.74199 -121.07211 37099 ft 462 kts 173°
2026-05-08 03:35 39.67838 -121.06028 37094 ft 462 kts 174°
2026-05-08 03:35 39.61472 -121.04847 37086 ft 462 kts 173°
2026-05-08 03:36 39.55024 -121.03652 37088 ft 462 kts 173°
2026-05-08 03:36 39.48661 -121.02476 37104 ft 462 kts 173°
2026-05-08 03:37 39.42300 -121.01302 37118 ft 462 kts 173°
2026-05-08 03:37 39.35941 -121.00130 37131 ft 462 kts 173°
2026-05-08 03:38 39.29581 -120.98961 37149 ft 462 kts 173°
2026-05-08 03:38 39.23218 -120.97793 37147 ft 462 kts 174°
2026-05-08 03:39 39.16863 -120.96629 37145 ft 462 kts 173°
2026-05-08 03:39 39.10502 -120.95465 37137 ft 461 kts 174°
2026-05-08 03:40 39.04144 -120.94304 37072 ft 461 kts 173°
2026-05-08 03:40 38.97791 -120.93147 37076 ft 461 kts 173°
2026-05-08 03:41 38.91442 -120.91992 37079 ft 461 kts 173°
2026-05-08 03:41 38.85099 -120.90841 37071 ft 460 kts 173°
2026-05-08 03:42 38.78756 -120.89691 37140 ft 460 kts 173°
2026-05-08 03:42 38.72420 -120.88545 37141 ft 460 kts 173°
2026-05-08 03:43 38.66120 -120.87407 37134 ft 460 kts 173°
2026-05-08 03:43 38.59787 -120.86266 37130 ft 460 kts 173°
2026-05-08 03:44 38.53454 -120.85126 37082 ft 459 kts 173°
2026-05-08 03:44 38.47124 -120.83989 37101 ft 459 kts 173°
2026-05-08 03:45 38.40799 -120.82855 37100 ft 459 kts 173°
2026-05-08 03:45 38.34472 -120.81723 37097 ft 459 kts 173°
2026-05-08 03:46 38.28146 -120.80593 37102 ft 459 kts 173°
2026-05-08 03:46 38.21825 -120.79465 37089 ft 459 kts 173°
2026-05-08 03:47 38.15505 -120.78340 37088 ft 458 kts 173°
2026-05-08 03:47 38.09186 -120.77217 37089 ft 458 kts 173°
2026-05-08 03:48 38.02872 -120.76096 37077 ft 458 kts 173°
2026-05-08 03:48 37.96557 -120.74978 37071 ft 458 kts 173°
2026-05-08 03:49 37.90241 -120.73861 37058 ft 458 kts 173°
2026-05-08 03:49 37.83932 -120.72747 37026 ft 458 kts 173°
2026-05-08 03:50 37.77625 -120.71635 37022 ft 458 kts 173°
2026-05-08 03:50 37.71318 -120.70526 37017 ft 457 kts 173°
2026-05-08 03:51 37.65009 -120.69418 37021 ft 457 kts 173°
2026-05-08 03:51 37.58707 -120.68313 37019 ft 457 kts 173°
2026-05-08 03:52 37.52404 -120.67209 37018 ft 457 kts 173°
2026-05-08 03:52 37.46096 -120.66107 37013 ft 457 kts 173°
2026-05-08 03:53 37.39798 -120.65008 37001 ft 457 kts 173°
2026-05-08 03:53 37.33496 -120.63890 37006 ft 458 kts 170°
2026-05-08 03:54 37.27307 -120.61962 37004 ft 458 kts 167°
2026-05-08 03:54 37.21132 -120.59961 37010 ft 458 kts 167°
2026-05-08 03:55 37.14953 -120.57955 37013 ft 459 kts 167°
2026-05-08 03:55 37.08783 -120.55955 37014 ft 458 kts 167°
2026-05-08 03:56 37.02605 -120.53956 37017 ft 458 kts 167°
2026-05-08 03:56 36.96472 -120.51975 37027 ft 458 kts 167°
2026-05-08 03:57 36.90296 -120.49982 37027 ft 458 kts 167°
2026-05-08 03:57 36.84116 -120.47993 37029 ft 458 kts 167°
2026-05-08 03:58 36.77940 -120.46007 37032 ft 459 kts 167°
2026-05-08 03:58 36.71759 -120.44024 37033 ft 459 kts 167°
2026-05-08 03:59 36.65577 -120.42044 37033 ft 459 kts 167°
2026-05-08 03:59 36.59391 -120.40065 37031 ft 459 kts 167°
2026-05-08 04:00 36.53204 -120.38090 37033 ft 459 kts 167°
2026-05-08 04:00 36.47019 -120.36118 37030 ft 459 kts 167°
2026-05-08 04:01 36.40829 -120.34148 37029 ft 459 kts 167°
2026-05-08 04:01 36.34630 -120.32178 37024 ft 460 kts 167°
2026-05-08 04:02 36.28431 -120.30212 37026 ft 460 kts 167°
2026-05-08 04:02 36.22278 -120.28263 37031 ft 460 kts 166°
2026-05-08 04:03 36.16089 -120.26306 37028 ft 460 kts 166°
2026-05-08 04:03 36.06784 -120.23371 37034 ft 460 kts 166°
2026-05-08 04:04 36.00587 -120.21419 37034 ft 460 kts 166°
2026-05-08 04:04 35.94371 -120.19465 37030 ft 460 kts 166°
2026-05-08 04:05 35.88165 -120.17517 37030 ft 460 kts 166°
2026-05-08 04:05 35.83003 -120.15899 37030 ft 461 kts 166°
2026-05-08 04:06 35.76782 -120.13952 37031 ft 461 kts 166°
2026-05-08 04:06 35.70562 -120.12008 37031 ft 462 kts 166°
2026-05-08 04:07 35.64615 -120.09166 37048 ft 461 kts 147°
2026-05-08 04:07 35.59065 -120.05050 37037 ft 463 kts 149°
2026-05-08 04:08 35.53558 -120.00931 37038 ft 464 kts 148°
2026-05-08 04:08 35.48051 -119.96790 36824 ft 463 kts 148°
2026-05-08 04:09 35.45307 -119.94728 36555 ft 462 kts 148°
2026-05-08 04:09 35.42562 -119.92667 36303 ft 462 kts 148°
2026-05-08 04:09 35.39818 -119.90609 36048 ft 463 kts 148°
2026-05-08 04:09 35.37068 -119.88547 35796 ft 463 kts 148°
2026-05-08 04:10 35.34317 -119.86486 35551 ft 463 kts 148°
2026-05-08 04:10 35.31571 -119.84431 35299 ft 464 kts 148°
2026-05-08 04:10 35.28843 -119.82317 35061 ft 464 kts 143°
2026-05-08 04:10 35.26263 -119.79943 34813 ft 465 kts 142°
2026-05-08 04:11 35.23689 -119.77553 34579 ft 465 kts 142°
2026-05-08 04:11 35.21112 -119.75149 34342 ft 466 kts 142°
2026-05-08 04:11 35.18538 -119.72746 34106 ft 466 kts 142°
2026-05-08 04:11 35.15965 -119.70344 33845 ft 466 kts 142°
2026-05-08 04:12 35.13381 -119.67935 33576 ft 467 kts 142°
2026-05-08 04:12 35.10795 -119.65525 33310 ft 468 kts 142°
2026-05-08 04:12 35.08214 -119.63121 33052 ft 468 kts 142°
2026-05-08 04:12 35.05614 -119.60703 32787 ft 469 kts 142°
2026-05-08 04:13 35.03016 -119.58289 32528 ft 470 kts 142°
2026-05-08 04:13 35.00417 -119.55875 32271 ft 470 kts 142°
2026-05-08 04:13 34.97816 -119.53462 31856 ft 467 kts 142°
2026-05-08 04:13 34.95218 -119.51052 30704 ft 475 kts 142°
2026-05-08 04:14 34.92560 -119.48591 29417 ft 484 kts 142°
2026-05-08 04:14 34.89847 -119.46150 28523 ft 482 kts 142°
2026-05-08 04:14 34.87172 -119.43754 27992 ft 474 kts 142°
2026-05-08 04:14 34.84533 -119.41387 27342 ft 469 kts 142°
2026-05-08 04:15 34.81934 -119.39056 27011 ft 458 kts 142°
2026-05-08 04:15 34.79406 -119.36790 26752 ft 445 kts 142°
2026-05-08 04:15 34.76942 -119.34584 26509 ft 434 kts 142°
2026-05-08 04:15 34.74530 -119.32443 26112 ft 428 kts 142°
2026-05-08 04:16 34.72112 -119.30330 25533 ft 427 kts 142°
2026-05-08 04:16 34.69708 -119.28225 25008 ft 425 kts 142°
2026-05-08 04:16 34.67315 -119.26131 24500 ft 423 kts 142°
2026-05-08 04:16 34.64926 -119.24049 23964 ft 422 kts 143°
2026-05-08 04:17 34.62532 -119.21984 23433 ft 420 kts 143°
2026-05-08 04:17 34.60166 -119.19942 23021 ft 414 kts 143°
2026-05-08 04:17 34.57849 -119.17943 22837 ft 403 kts 143°
2026-05-08 04:17 34.55606 -119.15977 22363 ft 393 kts 142°
2026-05-08 04:18 34.53421 -119.14040 21860 ft 383 kts 142°
2026-05-08 04:18 34.51301 -119.12165 21438 ft 371 kts 142°
2026-05-08 04:18 34.49176 -119.10288 20984 ft 378 kts 142°
2026-05-08 04:18 34.47038 -119.08401 20527 ft 383 kts 142°
2026-05-08 04:19 34.44876 -119.06496 20089 ft 385 kts 143°
2026-05-08 04:19 34.42680 -119.04589 19409 ft 391 kts 143°
2026-05-08 04:19 34.40468 -119.02670 18803 ft 394 kts 143°
2026-05-08 04:19 34.38230 -119.00728 18132 ft 398 kts 143°
2026-05-08 04:20 34.35963 -118.98763 17406 ft 401 kts 143°
2026-05-08 04:20 34.33709 -118.96770 16812 ft 400 kts 142°
2026-05-08 04:20 34.31495 -118.94759 16317 ft 397 kts 142°
2026-05-08 04:20 34.29298 -118.92772 16011 ft 389 kts 142°
2026-05-08 04:21 34.27176 -118.90856 15999 ft 373 kts 142°
2026-05-08 04:21 34.25111 -118.88979 15373 ft 376 kts 141°
2026-05-08 04:21 34.23033 -118.87066 14897 ft 375 kts 141°
2026-05-08 04:21 34.20960 -118.85163 14469 ft 372 kts 141°
2026-05-08 04:22 34.18907 -118.83281 14053 ft 369 kts 141°
2026-05-08 04:22 34.16871 -118.81414 13634 ft 366 kts 141°
2026-05-08 04:22 34.14958 -118.79374 12924 ft 369 kts 136°
2026-05-08 04:22 34.13053 -118.77277 12255 ft 372 kts 136°
2026-05-08 04:23 34.11135 -118.75190 11821 ft 369 kts 137°
2026-05-08 04:23 34.09238 -118.73138 11458 ft 363 kts 137°
2026-05-08 04:23 34.07362 -118.71115 11105 ft 359 kts 137°
2026-05-08 04:23 34.05510 -118.69119 10724 ft 355 kts 137°
2026-05-08 04:24 34.03741 -118.67074 10334 ft 350 kts 127°
2026-05-08 04:24 34.02693 -118.64475 9921 ft 344 kts 100°
2026-05-08 04:24 34.02472 -118.61682 9481 ft 329 kts 94°
2026-05-08 04:24 34.02247 -118.58995 9073 ft 316 kts 94°
2026-05-08 04:25 34.02013 -118.56386 8511 ft 310 kts 95°
2026-05-08 04:25 34.01779 -118.53829 8055 ft 302 kts 95°
2026-05-08 04:25 34.01551 -118.51374 7858 ft 286 kts 95°
2026-05-08 04:25 34.01335 -118.49067 7709 ft 269 kts 95°
2026-05-08 04:26 34.01126 -118.46855 7559 ft 254 kts 94°
2026-05-08 04:26 34.01163 -118.44792 7332 ft 242 kts 77°
2026-05-08 04:26 34.01500 -118.42869 7113 ft 233 kts 76°
2026-05-08 04:26 34.01835 -118.40947 6732 ft 232 kts 76°
2026-05-08 04:27 34.02172 -118.39000 6222 ft 242 kts 76°
2026-05-08 04:27 34.02525 -118.36957 5988 ft 256 kts 76°
2026-05-08 04:27 34.02824 -118.34796 5978 ft 266 kts 81°
2026-05-08 04:27 34.03053 -118.32553 5981 ft 271 kts 81°
2026-05-08 04:28 34.03290 -118.30294 5994 ft 272 kts 81°
2026-05-08 04:28 34.03534 -118.28049 5999 ft 267 kts 80°
2026-05-08 04:28 34.03775 -118.25851 5995 ft 262 kts 80°
2026-05-08 04:28 34.04013 -118.23678 5992 ft 261 kts 81°
2026-05-08 04:29 34.04251 -118.21508 5989 ft 261 kts 80°
2026-05-08 04:29 34.04488 -118.19349 5986 ft 256 kts 81°
2026-05-08 04:29 34.04709 -118.17320 5984 ft 234 kts 80°
2026-05-08 04:29 34.04922 -118.15378 5986 ft 233 kts 80°
2026-05-08 04:30 34.05136 -118.13438 5986 ft 233 kts 80°
2026-05-08 04:30 34.05349 -118.11498 5979 ft 233 kts 80°
2026-05-08 04:30 34.05562 -118.09559 5977 ft 234 kts 80°
2026-05-08 04:30 34.05776 -118.07620 5974 ft 233 kts 80°
2026-05-08 04:31 34.05990 -118.05676 5980 ft 234 kts 80°
2026-05-08 04:31 34.06203 -118.03738 5980 ft 233 kts 80°
2026-05-08 04:31 34.06417 -118.01796 5984 ft 233 kts 80°
2026-05-08 04:31 34.06630 -117.99858 5982 ft 233 kts 81°
2026-05-08 04:32 34.06844 -117.97923 5988 ft 233 kts 80°
2026-05-08 04:32 34.07059 -117.95977 5979 ft 233 kts 81°
2026-05-08 04:32 34.07061 -117.94042 5949 ft 234 kts 105°
2026-05-08 04:32 34.06159 -117.92448 5949 ft 235 kts 143°
2026-05-08 04:33 34.04668 -117.91696 5990 ft 235 kts 172°
2026-05-08 04:33 34.03070 -117.91886 5995 ft 232 kts 203°
2026-05-08 04:33 34.01790 -117.92997 5992 ft 227 kts 233°
2026-05-08 04:33 34.01088 -117.94684 6001 ft 224 kts 251°
2026-05-08 04:34 34.00451 -117.96374 5568 ft 223 kts 246°
2026-05-08 04:34 33.99770 -117.98054 5119 ft 220 kts 246°
2026-05-08 04:34 33.99320 -117.99794 5019 ft 219 kts 263°
2026-05-08 04:34 33.99119 -118.01621 5012 ft 220 kts 264°
2026-05-08 04:35 33.98926 -118.03451 4992 ft 221 kts 264°
2026-05-08 04:35 33.98738 -118.05284 4990 ft 220 kts 265°
2026-05-08 04:35 33.98552 -118.07118 4994 ft 220 kts 265°
2026-05-08 04:35 33.98367 -118.08953 4997 ft 220 kts 265°
2026-05-08 04:36 33.98188 -118.10741 4765 ft 211 kts 265°
2026-05-08 04:36 33.98017 -118.12445 4439 ft 199 kts 264°
2026-05-08 04:36 33.97852 -118.14095 3842 ft 198 kts 264°
2026-05-08 04:36 33.97686 -118.15742 3238 ft 197 kts 264°
2026-05-08 04:37 33.97523 -118.17371 2625 ft 194 kts 263°
2026-05-08 04:37 33.97362 -118.18980 2263 ft 195 kts 263°
2026-05-08 04:37 33.97204 -118.20552 2153 ft 175 kts 263°
2026-05-08 04:37 33.97068 -118.21901 2134 ft 155 kts 263°
2026-05-08 04:38 33.96940 -118.23175 2151 ft 151 kts 263°
2026-05-08 04:38 33.96813 -118.24429 2187 ft 153 kts 263°
2026-05-08 04:38 33.96682 -118.25729 2239 ft 156 kts 263°
2026-05-08 04:38 33.96554 -118.27006 2193 ft 152 kts 263°
2026-05-08 04:39 33.96467 -118.27859 2085 ft 151 kts 263°
2026-05-08 04:39 33.96340 -118.29113 1905 ft 150 kts 263°
2026-05-08 04:39 33.96213 -118.30363 1725 ft 150 kts 263°
2026-05-08 04:39 33.96086 -118.31606 1534 ft 149 kts 263°
2026-05-08 04:40 33.95960 -118.32844 1340 ft 148 kts 263°
2026-05-08 04:40 33.95835 -118.34070 1156 ft 147 kts 263°
2026-05-08 04:40 33.95711 -118.35284 966 ft 145 kts 263°
2026-05-08 04:40 33.95586 -118.36510 816 ft 161 kts 262°
2026-05-08 04:41 33.95439 -118.37900 744 ft 160 kts 263°
2026-05-08 04:41 33.95314 -118.39174 439 ft 147 kts 263°
2026-05-08 04:41 33.95192 -118.40363 140 ft 138 kts 263°
2026-05-08 04:41 33.95103 -118.41281 126 ft 75 kts 263°
2026-05-08 04:42 33.95055 -118.41736 127 ft 51 kts 262°
2026-05-08 04:42 33.95013 -118.42161 128 ft 51 kts 263°
2026-05-08 04:42 33.94949 -118.42513 128 ft 37 kts 246°
2026-05-08 04:42 33.94845 -118.42689 125 ft 21 kts 225°
2026-05-08 04:43 33.94786 -118.42746 125 ft 9 kts 211°
2026-05-08 04:43 33.94704 -118.42780 126 ft 18 kts 188°
2026-05-08 04:43 33.94552 -118.42769 128 ft 24 kts 172°
2026-05-08 04:43 33.94380 -118.42738 125 ft 26 kts 172°
2026-05-08 04:44 33.94195 -118.42711 125 ft 28 kts 173°
2026-05-08 04:44 33.94017 -118.42684 126 ft 22 kts 172°
2026-05-08 04:44 33.93859 -118.42661 127 ft 23 kts 173°
2026-05-08 04:44 33.93697 -118.42638 126 ft 17 kts 173°
2026-05-08 04:45 33.93617 -118.42553 128 ft 19 kts 86°
2026-05-08 04:45 33.93634 -118.42374 128 ft 24 kts 83°
2026-05-08 04:45 33.93658 -118.42166 127 ft 26 kts 82°
2026-05-08 04:45 33.93682 -118.41936 125 ft 29 kts 83°
2026-05-08 04:46 33.93708 -118.41690 128 ft 31 kts 83°
2026-05-08 04:46 33.93734 -118.41426 128 ft 33 kts 83°
2026-05-08 04:46 33.93756 -118.41210 127 ft 27 kts 83°
2026-05-08 04:46 33.93779 -118.40981 128 ft 29 kts 83°
2026-05-08 04:47 33.93802 -118.40778 125 ft 17 kts 67°
2026-05-08 04:47 33.93895 -118.40789 126 ft 17 kts 318°
2026-05-08 04:47 33.93997 -118.40820 127 ft 16 kts 353°
2026-05-08 04:47 33.94034 -118.40809 125 ft 2 kts 53°
2026-05-08 04:48 33.94041 -118.40772 124 ft 1 kts 80°
2026-05-08 04:48 33.94044 -118.40751 126 ft 3 kts 81°
2026-05-08 04:48 33.94045 -118.40743 128 ft 0 kts 81°